Regional Weather Roundup
Issued by NWS

Home | Current Version | Previous Version | Text Only | Print | Product List | Glossary Off
Versions: 1 2 3 4 5 6 7 8 9 10 11 12 13 14 15 16 17 18 19 20 21 22 23 24 25 26 27 28 29 30 31 32 33 34 35 36 37 38 39 40 41 42 43 44 45 46 47 48 49 50

000
ASUS43 KMKX 270200
RWRWI

WISCONSIN REGIONAL WEATHER ROUNDUP
NATIONAL WEATHER SERVICE MILWAUKEE/SULLIVAN WI
900 PM CDT THU APR 26 2018

NOTE: "FAIR" INDICATES FEW OR NO CLOUDS BELOW 12,000 FEET WITH NO
SIGNIFICANT WEATHER AND/OR OBSTRUCTIONS TO VISIBILITY.

WIZ001-002-006>008-014>016-023>028-270300-
NORTHWEST WISCONSIN

CITY           SKY/WX    TMP DP  RH WIND       PRES   REMARKS
SUPERIOR ARPT  FAIR      38  31  73 NE3       29.89R
ASHLAND        FAIR      38  32  79 N3        29.90S
HAYWARD        FAIR      41  27  57 CALM      29.88S
SIREN          FAIR      52  23  32 N3        29.90R
CUMBERLAND     FAIR      48  27  43 N6        29.89R
RICE LAKE      FAIR      50  31  48 N6        29.90R
CHETEK         FAIR      47  33  57 CALM      29.88R
LADYSMITH      FAIR      46  34  65 NE7       29.90R
EAU CLAIRE     NOT AVBL
MENOMONIE      FAIR      54  29  39 NW10      29.87R
NEW RICHMOND   FAIR      51  28  41 NW9       29.90R
OSCEOLA        FAIR      53  28  38 NW9G16    29.93R
$$

WIZ003>005-009-010-017-018-270300-
NORTH CENTRAL WISCONSIN

CITY           SKY/WX    TMP DP  RH WIND       PRES   REMARKS
MANITOWISH WTR FAIR      38  33  82 CALM      29.88S
ARBOR VITAE    FAIR      40  35  80 CALM      29.88R
WOODRUFF       FAIR      40  35  80 CALM      29.88R
RHINELANDER    FAIR      39  34  82 N3        29.88R
EAGLE RIVER    FAIR      37  31  78 N3        29.87S
LAND O LAKES   FAIR      32  31  94 CALM      29.89R
PHILLIPS       FAIR      39  30  70 CALM      29.88R
TOMAHAWK       FAIR      40  33  75 N5        29.89R
MEDFORD        FAIR      43  34  70 N8        29.86R
MERRILL        CLOUDY    45  34  65 N15       29.87R
$$

WIZ029-030-035-036-043>047-270300-
CENTRAL WISCONSIN

CITY           SKY/WX    TMP DP  RH WIND       PRES   REMARKS
WAUSAU         MOCLDY    48  34  58 N14G23    29.84R
MOSINEE        MOCLDY    48  34  57 N17       29.86R
MARSHFIELD     MOCLDY    48  35  60 NE14G20   29.84R
STEVENS POINT  CLOUDY    51  36  56 N15G22    29.83R
WAUPACA        CLOUDY    61  32  33 NW12G18   29.78R
WAUTOMA        MOCLDY    55  33  43 W5        29.77S
WISC RAPIDS    CLOUDY    53  34  48 N21G32    29.84R
CAMP DOUGLAS   CLOUDY    60  37  42 N22G29    29.80R
$$

WIZ011>013-019>022-031-037>040-048>050-270300-
NORTHEAST WISCONSIN

CITY           SKY/WX    TMP DP  RH WIND       PRES   REMARKS
ANTIGO         CLOUDY    44  35  70 N15G26    29.85R
SHAWANO        CLOUDY    57  34  41 N15       29.79R
OCONTO         CLOUDY    55  35  47 CALM      29.75R
STURGEON BAY   CLOUDY    45  33  63 N24       29.80R
GREEN BAY      FAIR      57  42  57 CALM      29.75S
MANITOWOC      FAIR      44  35  70 E3        29.77F
APPLETON       MOCLDY    57  25  28 CALM      29.74
CLINTONVILLE   CLOUDY    59  31  35 N15       29.78R
OSHKOSH        MOCLDY    56  35  45 S7        29.75S
$$

WIZ032>034-041-042-053>061-270300-
SOUTHWEST WISCONSIN

CITY           SKY/WX    TMP DP  RH WIND       PRES   REMARKS
LA CROSSE      CLOUDY    59  38  45 NW10      29.82R
SPARTA         CLOUDY    62  37  39 NW9G16    29.82R
VIROQUA        FAIR      56  38  51 NW13      29.82R
BOSCOBEL       FAIR      62  42  47 W6        29.80R
PRAIRIE DU CHI FAIR      59  38  46 W7        29.81R
PLATTEVILLE    FAIR      60  32  35 W6        29.80S
$$

WIZ056-057-062-063-064-067-068-270300-
SOUTH CENTRAL WISCONSIN

CITY           SKY/WX    TMP DP  RH WIND       PRES   REMARKS
REEDSBURG      CLOUDY    60  36  41 W7        29.78R
BARABOO/DELLS  MOCLDY    60  28  29 W3        29.77S
LONE ROCK      NOT AVBL
MINERAL POINT  FAIR      59  32  36 W3        29.80R
MADISON        MOCLDY    56  34  43 CALM      29.77S
MIDDLETON      FAIR      59  32  36 W5        29.78S
WATERTOWN      FAIR      56  33  41 CALM      29.78S
MONROE         FAIR      59  30  33 SW7       29.79S
JANESVILLE     MOCLDY    61  27  27 S5        29.79F
$$

WIZ051-052-058>065-066-070>072-270300-
SOUTHEAST WISCONSIN

CITY           SKY/WX    TMP DP  RH WIND       PRES   REMARKS
MILWAUKEE      MOCLDY    52  28  39 S8        29.80F
WAUKESHA       CLEAR     57  27  30 S3        29.80F
MILWAUKEE/TIMM PTCLDY    55  27  33 S7        29.80S
RACINE         FAIR      51  23  33 S14       29.82F
BURLINGTON     FAIR      52  31  45 CALM      29.80F
KENOSHA        FAIR      49  26  41 S8        29.81F
FOND DU LAC    FAIR      56  32  40 S5        29.76S
SHEBOYGAN      FAIR      47  35  63 S6        29.77F
WEST BEND      FAIR      55  30  38 CALM      29.78S
JUNEAU         FAIR      56  32  40 CALM      29.78S
$$

LSZ147-162-270300-
LAKE SUPERIOR

STATION/POSITION TIME  TEMP    WIND        PRES    WAVE
                       AIR SEA DIR/SP/G            HT/PER
                 (UTC) (F)     (DEG/KT/KT) (MB)    (FT/S)
DEVILS ISLAND    0100   45     160/  7/  8 1012.8S
SAXON HARBOR     0130   37     180/  2/  2 1011.9S
$$

LMZ867-665-643>646-270300-
LAKE MICHIGAN

STATION/POSITION TIME  TEMP    WIND        PRES    WAVE
                       AIR SEA DIR/SP/G            HT/PER
                 (UTC) (F)     (DEG/KT/KT) (MB)    (FT/S)
NORTHPORT PIER   0140   41                 1010.2R
KEWAUNEE LAKESHO 0130   42     170/ 12/ 14 1007.5F
SHEBOYGAN LAKESH 0100   44     180/ 16/ 17 1008.7F
PORT WASHINGTON  0140   45     190/  7/ 10 1009.8S
MILWAUKEE LAKESH 0130   44     150/  8/  9   N/A
KENOSHA   LAKESH 0100   48                 1009.8
$$

TC  - TEMPERATURE IN CELSIUS
VSB - VISIBILITY IN STATUTE MILES
WCI - WIND CHILL INDEX
HX  - HEAT INDEX




USA.gov is the U.S. government's official web portal to all federal, state and local government web resources and services.